Location: Curupao
(10.4996°N, 66.6442°W)
Time: 22:14:45
(UTC+00:00)

ARIANE 5 R/B - Pass Details

Date: 23 May 2024
Orbit: 746 x 794 km, 98.8° (Epoch: 25 June)

Event Time Altitude Azimuth Distance (km) Brightness Sun altitude
Rises 09:14:53 0° 13° (NNE) 3,197 6.3 -11.9°
Reaches altitude 10° 09:17:11 10° 13° (NNE) 2,268 5.5 -11.4°
Maximum altitude 09:22:10 88° 100° (E) 751 2.5 -10.3°
Drops below altitude 10° 09:27:08 10° 192° (SSW) 2,256 4.6 -9.2°
Sets 09:29:25 0° 192° (SSW) 3,179 5.4 -8.6°
